User: anonymous   Login
Location: C�an Torras
(41.5052°N, 1.9280°E)
Time: 03:37:29
(UTC+00:00)
Language:

Cosmos 1943 - Orbit

View from above orbital plane
View from above orbital plane
View from above satellite
View from above satellite

Ground track
Ground track

The orbit data is extracted from the following two-line orbital elements,

1 19119U 88039A   21107.87689556 -.00000143  00000-0 -48882-4 0  9998
2 19119  71.0048  40.0982 0009259  87.3019 329.6301 14.15167794700252
Epoch (UTC): 17 April 2021 21:02:43
Eccentricity: 0.0009259
inclination: 71.0048°
perigee height: 835 km
apogee height: 848 km
right ascension of ascending node: 40.0982°
argument of perigee: 87.3019°
revolutions per day: 14.15167794
mean anomaly at epoch: 329.6301°
orbit number at epoch: 70025

The dashed part of the orbit path shows where the satellite is in the earth's shadow,  

DLR